Time,TemperatureF,DewpointF,PressureIn,WindDirection,WindDirectionDegrees,WindSpeedMPH,WindSpeedGustMPH,Humidity,HourlyPrecipIn,Conditions,Clouds,dailyrainin,SoftwareType,DateUTC
2013-04-25 00:03:00,60.0,52.0,29.87,South,173,0.0,0.0,75,0.00,,,0.00,,2013-04-25 04:03:00,
2013-04-25 00:13:00,60.0,52.0,29.87,South,173,0.0,0.0,75,0.00,,,0.00,,2013-04-25 04:13:00,
2013-04-25 00:23:00,60.0,52.0,29.87,South,173,0.0,0.0,75,0.00,,,0.00,,2013-04-25 04:23:00,
2013-04-25 00:33:00,60.0,52.0,29.88,WSW,248,0.0,0.0,76,0.00,,,0.00,,2013-04-25 04:33:00,
2013-04-25 00:43:00,60.0,52.0,29.88,WSW,248,0.0,0.0,76,0.00,,,0.00,,2013-04-25 04:43:00,
2013-04-25 00:52:00,60.0,52.0,29.88,WSW,248,0.0,0.0,76,0.00,,,0.00,,2013-04-25 04:52:00,
2013-04-25 01:02:00,60.0,53.0,29.91,West,267,1.0,5.0,77,0.00,,,0.00,,2013-04-25 05:02:00,
2013-04-25 01:12:00,60.0,53.0,29.91,West,267,1.0,5.0,77,0.00,,,0.00,,2013-04-25 05:12:00,
2013-04-25 01:21:00,59.0,49.0,29.91,WSW,239,0.0,3.0,69,0.00,,,0.00,,2013-04-25 05:21:00,
2013-04-25 01:32:00,59.0,46.0,29.91,WNW,285,0.0,0.0,63,0.00,,,0.00,,2013-04-25 05:32:00,
2013-04-25 01:42:00,59.0,46.0,29.91,WNW,285,0.0,0.0,63,0.00,,,0.00,,2013-04-25 05:42:00,
2013-04-25 01:51:00,58.0,45.0,29.92,WNW,301,0.0,0.0,61,0.00,,,0.00,,2013-04-25 05:51:00,
2013-04-25 02:02:00,58.0,44.0,29.91,WNW,301,0.0,0.0,60,0.00,,,0.00,,2013-04-25 06:02:00,
2013-04-25 02:12:00,58.0,44.0,29.91,WNW,301,0.0,0.0,60,0.00,,,0.00,,2013-04-25 06:12:00,
2013-04-25 02:22:00,57.0,44.0,29.92,WNW,301,0.0,0.0,61,0.00,,,0.00,,2013-04-25 06:22:00,
2013-04-25 02:32:00,57.0,44.0,29.93,WNW,301,0.0,0.0,62,0.00,,,0.00,,2013-04-25 06:32:00,
2013-04-25 02:42:00,57.0,44.0,29.93,WNW,301,0.0,0.0,62,0.00,,,0.00,,2013-04-25 06:42:00,
2013-04-25 02:52:00,57.0,45.0,29.93,WNW,301,0.0,0.0,63,0.00,,,0.00,,2013-04-25 06:52:00,
2013-04-25 03:02:00,56.0,42.0,29.96,North,359,0.0,7.0,59,0.00,,,0.00,,2013-04-25 07:02:00,
2013-04-25 03:12:00,56.0,42.0,29.96,North,359,0.0,7.0,59,0.00,,,0.00,,2013-04-25 07:12:00,
2013-04-25 03:22:00,54.0,40.0,29.97,WNW,285,0.0,0.0,59,0.00,,,0.00,,2013-04-25 07:22:00,
2013-04-25 03:32:00,52.0,38.0,29.98,WNW,285,0.0,0.0,59,0.00,,,0.00,,2013-04-25 07:32:00,
2013-04-25 03:42:00,52.0,38.0,29.98,WNW,285,0.0,0.0,59,0.00,,,0.00,,2013-04-25 07:42:00,
2013-04-25 03:52:00,51.0,36.0,29.99,WNW,285,0.0,0.0,56,0.00,,,0.00,,2013-04-25 07:52:00,
2013-04-25 04:02:00,50.0,34.0,30.02,WNW,285,0.0,0.0,54,0.00,,,0.00,,2013-04-25 08:02:00,
2013-04-25 04:11:00,50.0,34.0,30.02,WNW,285,0.0,0.0,54,0.00,,,0.00,,2013-04-25 08:11:00,
2013-04-25 04:21:00,50.0,34.0,30.02,WNW,285,0.0,0.0,54,0.00,,,0.00,,2013-04-25 08:21:00,
2013-04-25 04:32:00,49.0,34.0,30.03,WNW,285,0.0,0.0,56,0.00,,,0.00,,2013-04-25 08:32:00,
2013-04-25 04:42:00,49.0,34.0,30.03,WNW,285,0.0,0.0,56,0.00,,,0.00,,2013-04-25 08:42:00,
2013-04-25 04:51:00,48.0,33.0,30.04,WNW,285,0.0,0.0,56,0.00,,,0.00,,2013-04-25 08:51:00,
2013-04-25 05:01:00,48.0,34.0,30.06,WNW,285,0.0,0.0,57,0.00,,,0.00,,2013-04-25 09:01:00,
2013-04-25 05:11:00,48.0,34.0,30.06,WNW,285,0.0,0.0,57,0.00,,,0.00,,2013-04-25 09:11:00,
2013-04-25 05:21:00,48.0,34.0,30.06,WNW,285,0.0,0.0,58,0.00,,,0.00,,2013-04-25 09:21:00,
2013-04-25 05:33:00,48.0,34.0,30.07,WNW,285,0.0,0.0,58,0.00,,,0.00,,2013-04-25 09:33:00,
2013-04-25 05:42:00,48.0,34.0,30.07,WNW,285,0.0,0.0,58,0.00,,,0.00,,2013-04-25 09:42:00,
2013-04-25 05:52:00,46.0,32.0,30.10,WNW,285,0.0,0.0,58,0.00,,,0.00,,2013-04-25 09:52:00,
2013-04-25 06:02:00,46.0,33.0,30.11,WNW,285,0.0,0.0,60,0.00,,,0.00,,2013-04-25 10:02:00,
2013-04-25 06:12:00,46.0,33.0,30.11,WNW,285,0.0,0.0,60,0.00,,,0.00,,2013-04-25 10:12:00,
2013-04-25 06:22:00,45.0,32.0,30.11,WNW,285,0.0,0.0,61,0.00,,,0.00,,2013-04-25 10:22:00,
2013-04-25 06:33:00,45.0,32.0,30.13,WNW,285,0.0,0.0,61,0.00,,,0.00,,2013-04-25 10:33:00,
2013-04-25 06:42:00,45.0,32.0,30.13,WNW,285,0.0,0.0,61,0.00,,,0.00,,2013-04-25 10:42:00,
2013-04-25 06:52:00,44.0,32.0,30.14,NW,312,0.0,0.0,62,0.00,,,0.00,,2013-04-25 10:52:00,
2013-04-25 07:02:00,44.0,32.0,30.15,NNW,328,0.0,0.0,62,0.00,,,0.00,,2013-04-25 11:02:00,
2013-04-25 07:12:00,44.0,32.0,30.15,NNW,328,0.0,0.0,62,0.00,,,0.00,,2013-04-25 11:12:00,
2013-04-25 07:22:00,44.0,32.0,30.16,NNW,328,0.0,0.0,62,0.00,,,0.00,,2013-04-25 11:22:00,
2013-04-25 07:32:00,44.0,31.0,30.17,WNW,301,0.0,0.0,60,0.00,,,0.00,,2013-04-25 11:32:00,
2013-04-25 07:42:00,44.0,31.0,30.17,WNW,301,0.0,0.0,60,0.00,,,0.00,,2013-04-25 11:42:00,
2013-04-25 07:51:00,44.0,31.0,30.18,WNW,300,0.0,0.0,59,0.00,,,0.00,,2013-04-25 11:51:00,
2013-04-25 08:01:00,45.0,29.0,30.18,WNW,300,0.0,3.0,54,0.00,,,0.00,,2013-04-25 12:01:00,
2013-04-25 08:12:00,45.0,29.0,30.18,WNW,300,0.0,3.0,54,0.00,,,0.00,,2013-04-25 12:12:00,
2013-04-25 08:21:00,45.0,29.0,30.19,WNW,300,0.0,0.0,53,0.00,,,0.00,,2013-04-25 12:21:00,
2013-04-25 08:32:00,46.0,29.0,30.19,WNW,300,0.0,0.0,51,0.00,,,0.00,,2013-04-25 12:32:00,
2013-04-25 08:42:00,46.0,29.0,30.19,WNW,300,0.0,0.0,51,0.00,,,0.00,,2013-04-25 12:42:00,
2013-04-25 08:51:00,46.0,28.0,30.19,WNW,300,0.0,0.0,50,0.00,,,0.00,,2013-04-25 12:51:00,
2013-04-25 09:02:00,47.0,29.0,30.20,WNW,300,0.0,0.0,49,0.00,,,0.00,,2013-04-25 13:02:00,
2013-04-25 09:11:00,47.0,29.0,30.20,WNW,300,0.0,0.0,49,0.00,,,0.00,,2013-04-25 13:11:00,
2013-04-25 09:21:00,47.0,28.0,30.20,WNW,300,0.0,0.0,47,0.00,,,0.00,,2013-04-25 13:21:00,
2013-04-25 09:32:00,49.0,29.0,30.21,WNW,300,0.0,0.0,46,0.00,,,0.00,,2013-04-25 13:32:00,
2013-04-25 09:42:00,49.0,29.0,30.21,WNW,300,0.0,0.0,46,0.00,,,0.00,,2013-04-25 13:42:00,
2013-04-25 09:52:00,50.0,29.0,30.21,WNW,300,0.0,0.0,45,0.00,,,0.00,,2013-04-25 13:52:00,
2013-04-25 10:02:00,50.0,28.0,30.20,WNW,300,0.0,0.0,43,0.00,,,0.00,,2013-04-25 14:02:00,
2013-04-25 10:11:00,50.0,28.0,30.20,WNW,300,0.0,0.0,43,0.00,,,0.00,,2013-04-25 14:11:00,
2013-04-25 10:21:00,51.0,28.0,30.21,WNW,300,0.0,0.0,41,0.00,,,0.00,,2013-04-25 14:21:00,
2013-04-25 10:32:00,51.0,28.0,30.21,WNW,300,0.0,0.0,41,0.00,,,0.00,,2013-04-25 14:32:00,
2013-04-25 10:42:00,51.0,28.0,30.21,WNW,300,0.0,0.0,41,0.00,,,0.00,,2013-04-25 14:42:00,
2013-04-25 10:51:00,51.0,28.0,30.21,WNW,300,0.0,0.0,40,0.00,,,0.00,,2013-04-25 14:51:00,
2013-04-25 11:02:00,50.0,28.0,30.22,WNW,300,0.0,0.0,42,0.00,,,0.00,,2013-04-25 15:02:00,
2013-04-25 11:11:00,50.0,28.0,30.22,WNW,300,0.0,0.0,42,0.00,,,0.00,,2013-04-25 15:11:00,
2013-04-25 11:21:00,51.0,29.0,30.21,WNW,300,0.0,0.0,43,0.00,,,0.00,,2013-04-25 15:21:00,
2013-04-25 11:33:00,53.0,28.0,30.21,WNW,300,0.0,0.0,38,0.00,,,0.00,,2013-04-25 15:33:00,
2013-04-25 11:42:00,53.0,28.0,30.21,WNW,300,0.0,0.0,38,0.00,,,0.00,,2013-04-25 15:42:00,
2013-04-25 11:53:00,55.0,29.0,30.21,WNW,300,0.0,0.0,36,0.00,,,0.00,,2013-04-25 15:53:00,
2013-04-25 12:02:00,55.0,28.0,30.22,NW,323,0.0,0.0,35,0.00,,,0.00,,2013-04-25 16:02:00,
2013-04-25 12:13:00,55.0,28.0,30.22,NW,323,0.0,0.0,35,0.00,,,0.00,,2013-04-25 16:13:00,
2013-04-25 12:24:00,56.0,27.0,30.21,NW,323,0.0,0.0,33,0.00,,,0.00,,2013-04-25 16:24:00,
2013-04-25 12:33:00,57.0,27.0,30.21,NW,323,0.0,0.0,31,0.00,,,0.00,,2013-04-25 16:33:00,
2013-04-25 12:43:00,57.0,27.0,30.21,NW,323,0.0,0.0,31,0.00,,,0.00,,2013-04-25 16:43:00,
2013-04-25 12:52:00,58.0,26.0,30.20,NW,323,0.0,0.0,29,0.00,,,0.00,,2013-04-25 16:52:00,
2013-04-25 13:02:00,59.0,28.0,30.20,WNW,295,0.0,0.0,30,0.00,,,0.00,,2013-04-25 17:02:00,
2013-04-25 13:11:00,59.0,28.0,30.20,WNW,295,0.0,0.0,30,0.00,,,0.00,,2013-04-25 17:11:00,
2013-04-25 13:22:00,60.0,28.0,30.20,WNW,295,0.0,0.0,30,0.00,,,0.00,,2013-04-25 17:22:00,
2013-04-25 13:32:00,60.0,28.0,30.19,WNW,295,0.0,0.0,29,0.00,,,0.00,,2013-04-25 17:32:00,
2013-04-25 13:42:00,60.0,28.0,30.19,WNW,295,0.0,0.0,29,0.00,,,0.00,,2013-04-25 17:42:00,
2013-04-25 13:53:00,60.0,26.0,30.19,WNW,295,0.0,0.0,27,0.00,,,0.00,,2013-04-25 17:53:00,
2013-04-25 14:01:00,61.0,23.0,30.19,WNW,295,0.0,0.0,23,0.00,,,0.00,,2013-04-25 18:01:00,
2013-04-25 14:11:00,61.0,23.0,30.19,WNW,295,0.0,0.0,23,0.00,,,0.00,,2013-04-25 18:11:00,
2013-04-25 14:22:00,62.0,24.0,30.19,WNW,295,0.0,0.0,23,0.00,,,0.00,,2013-04-25 18:22:00,
2013-04-25 14:32:00,63.0,27.0,30.18,WNW,295,0.0,0.0,25,0.00,,,0.00,,2013-04-25 18:32:00,
2013-04-25 14:43:00,63.0,27.0,30.18,WNW,295,0.0,0.0,25,0.00,,,0.00,,2013-04-25 18:43:00,
2013-04-25 14:52:00,63.0,22.0,30.18,WNW,295,0.0,0.0,21,0.00,,,0.00,,2013-04-25 18:52:00,
2013-04-25 15:02:00,63.0,26.0,30.18,WNW,295,0.0,0.0,24,0.00,,,0.00,,2013-04-25 19:02:00,
2013-04-25 15:12:00,63.0,26.0,30.18,WNW,295,0.0,0.0,24,0.00,,,0.00,,2013-04-25 19:12:00,
2013-04-25 15:21:00,64.0,22.0,30.18,WNW,295,0.0,0.0,20,0.00,,,0.00,,2013-04-25 19:21:00,
2013-04-25 15:32:00,64.0,25.0,30.17,WNW,295,0.0,0.0,23,0.00,,,0.00,,2013-04-25 19:32:00,
2013-04-25 15:42:00,64.0,25.0,30.17,WNW,295,0.0,0.0,23,0.00,,,0.00,,2013-04-25 19:42:00,
2013-04-25 15:52:00,65.0,25.0,30.17,WNW,295,0.0,0.0,22,0.00,,,0.00,,2013-04-25 19:52:00,
2013-04-25 16:02:00,65.0,24.0,30.17,North,359,0.0,2.0,21,0.00,,,0.00,,2013-04-25 20:02:00,
2013-04-25 16:11:00,65.0,24.0,30.17,North,359,0.0,2.0,21,0.00,,,0.00,,2013-04-25 20:11:00,
2013-04-25 16:22:00,64.0,23.0,30.17,North,359,0.0,0.0,21,0.00,,,0.00,,2013-04-25 20:22:00,
2013-04-25 16:32:00,64.0,25.0,30.17,North,359,0.0,0.0,23,0.00,,,0.00,,2013-04-25 20:32:00,
2013-04-25 16:42:00,64.0,25.0,30.17,North,359,0.0,0.0,23,0.00,,,0.00,,2013-04-25 20:42:00,
2013-04-25 16:52:00,64.0,24.0,30.17,North,359,0.0,0.0,22,0.00,,,0.00,,2013-04-25 20:52:00,
2013-04-25 17:01:00,65.0,25.0,30.17,North,359,0.0,0.0,22,0.00,,,0.00,,2013-04-25 21:01:00,
2013-04-25 17:11:00,65.0,25.0,30.17,North,359,0.0,0.0,22,0.00,,,0.00,,2013-04-25 21:11:00,
2013-04-25 17:22:00,64.0,21.0,30.17,North,359,0.0,0.0,19,0.00,,,0.00,,2013-04-25 21:22:00,
2013-04-25 17:33:00,65.0,23.0,30.17,North,359,0.0,0.0,20,0.00,,,0.00,,2013-04-25 21:33:00,
2013-04-25 17:42:00,65.0,23.0,30.17,North,359,0.0,0.0,20,0.00,,,0.00,,2013-04-25 21:42:00,
2013-04-25 17:52:00,65.0,20.0,30.17,North,359,0.0,0.0,18,0.00,,,0.00,,2013-04-25 21:52:00,
2013-04-25 18:03:00,64.0,21.0,30.18,North,359,0.0,0.0,19,0.00,,,0.00,,2013-04-25 22:03:00,
2013-04-25 18:12:00,64.0,21.0,30.18,North,359,0.0,0.0,19,0.00,,,0.00,,2013-04-25 22:12:00,
2013-04-25 18:22:00,64.0,21.0,30.18,North,359,0.0,0.0,19,0.00,,,0.00,,2013-04-25 22:22:00,
2013-04-25 18:33:00,64.0,21.0,30.18,North,359,0.0,0.0,19,0.00,,,0.00,,2013-04-25 22:33:00,
2013-04-25 18:42:00,64.0,21.0,30.18,North,359,0.0,0.0,19,0.00,,,0.00,,2013-04-25 22:42:00,
2013-04-25 18:52:00,64.0,22.0,30.18,North,359,0.0,0.0,20,0.00,,,0.00,,2013-04-25 22:52:00,
2013-04-25 19:02:00,64.0,22.0,30.19,North,359,0.0,0.0,20,0.00,,,0.00,,2013-04-25 23:02:00,
2013-04-25 19:12:00,64.0,22.0,30.19,North,359,0.0,0.0,20,0.00,,,0.00,,2013-04-25 23:12:00,
2013-04-25 19:22:00,63.0,20.0,30.19,North,359,0.0,0.0,19,0.00,,,0.00,,2013-04-25 23:22:00,
2013-04-25 19:32:00,62.0,19.0,30.19,North,359,0.0,0.0,19,0.00,,,0.00,,2013-04-25 23:32:00,
2013-04-25 19:42:00,62.0,19.0,30.19,North,359,0.0,0.0,19,0.00,,,0.00,,2013-04-25 23:42:00,
2013-04-25 19:52:00,62.0,20.0,30.19,North,359,0.0,0.0,20,0.00,,,0.00,,2013-04-25 23:52:00,
2013-04-25 20:01:00,61.0,21.0,30.19,North,359,0.0,0.0,21,0.00,,,0.00,,2013-04-26 00:01:00,
2013-04-25 20:11:00,61.0,21.0,30.19,North,359,0.0,0.0,21,0.00,,,0.00,,2013-04-26 00:11:00,
2013-04-25 20:21:00,60.0,26.0,30.20,North,359,0.0,0.0,27,0.00,,,0.00,,2013-04-26 00:21:00,
2013-04-25 20:32:00,59.0,26.0,30.20,North,359,0.0,0.0,28,0.00,,,0.00,,2013-04-26 00:32:00,
2013-04-25 20:42:00,59.0,26.0,30.20,North,359,0.0,0.0,28,0.00,,,0.00,,2013-04-26 00:42:00,
2013-04-25 20:52:00,56.0,27.0,30.22,North,359,0.0,0.0,33,0.00,,,0.00,,2013-04-26 00:52:00,
2013-04-25 21:01:00,55.0,29.0,30.23,North,359,0.0,0.0,36,0.00,,,0.00,,2013-04-26 01:01:00,
2013-04-25 21:11:00,55.0,29.0,30.23,North,359,0.0,0.0,36,0.00,,,0.00,,2013-04-26 01:11:00,
2013-04-25 21:21:00,55.0,29.0,30.23,North,359,0.0,0.0,37,0.00,,,0.00,,2013-04-26 01:21:00,
2013-04-25 21:32:00,54.0,31.0,30.24,North,359,0.0,0.0,41,0.00,,,0.00,,2013-04-26 01:32:00,
2013-04-25 21:42:00,54.0,31.0,30.24,North,359,0.0,0.0,41,0.00,,,0.00,,2013-04-26 01:42:00,
2013-04-25 21:52:00,53.0,31.0,30.25,North,359,0.0,0.0,42,0.00,,,0.00,,2013-04-26 01:52:00,
2013-04-25 22:02:00,53.0,32.0,30.25,North,359,0.0,0.0,44,0.00,,,0.00,,2013-04-26 02:02:00,
2013-04-25 22:12:00,53.0,32.0,30.25,North,359,0.0,0.0,44,0.00,,,0.00,,2013-04-26 02:12:00,
2013-04-25 22:21:00,52.0,31.0,30.26,North,359,0.0,0.0,45,0.00,,,0.00,,2013-04-26 02:21:00,
2013-04-25 22:32:00,51.0,32.0,30.26,North,359,0.0,0.0,48,0.00,,,0.00,,2013-04-26 02:32:00,
2013-04-25 22:42:00,51.0,32.0,30.26,North,359,0.0,0.0,48,0.00,,,0.00,,2013-04-26 02:42:00,
2013-04-25 22:51:00,50.0,32.0,30.26,North,359,0.0,0.0,49,0.00,,,0.00,,2013-04-26 02:51:00,
2013-04-25 23:01:00,50.0,32.0,30.27,North,359,0.0,0.0,50,0.00,,,0.00,,2013-04-26 03:01:00,
2013-04-25 23:11:00,50.0,32.0,30.27,North,359,0.0,0.0,50,0.00,,,0.00,,2013-04-26 03:11:00,
2013-04-25 23:21:00,50.0,33.0,30.27,North,359,0.0,0.0,51,0.00,,,0.00,,2013-04-26 03:21:00,
2013-04-25 23:33:00,49.0,33.0,30.27,North,359,0.0,0.0,53,0.00,,,0.00,,2013-04-26 03:33:00,
2013-04-25 23:43:00,49.0,33.0,30.27,North,359,0.0,0.0,53,0.00,,,0.00,,2013-04-26 03:43:00,
2013-04-25 23:53:00,49.0,33.0,30.27,North,359,0.0,0.0,54,0.00,,,0.00,,2013-04-26 03:53:00,